Amateur Radio Satellites - All Passes

Search period start: 24 May 2013 09:19
Search period end: 25 May 2013 09:19
Location: Kitchener-Waterloo, 43.4500°N, 80.5000°W

Satellite Date Start Highest point End Downlink Frequencies (MHz)
Time Altitude Azimuth
Sapphire 24 May 09:20:15 09:24:51 28° 314° (NW) 09:29:29 437.095 MHz 1200 baud AX-25 AFSK
JAS-2 24 May 09:31:44 09:33:58 12° 81° (E) 09:36:06 435.800 - 435.900 CW/SSB, 435.910 FM
AO-7 24 May 09:51:52 09:52:41 10° 323° (NW) 09:53:31 29.400 - 29.500 MHz
SO-67 24 May 10:04:43 10:07:27 21° 292° (WNW) 10:10:11 435.3500 MHz FM
KITSAT 1 24 May 10:04:48 10:11:21 28° 255° (WSW) 10:17:53 435.175 FM
HO-68 24 May 10:07:25 10:13:46 33° 96° (E) 10:20:05 435.675 MHz FM
JAS-1B 24 May 10:21:24 10:26:51 35° 296° (WNW) 10:31:56 435.800 - 435.900 CW/SSB
UOSAT-12 24 May 10:29:43 10:30:31 10° 107° (ESE) 10:31:20 437.025 FM, 437.400 FM
PCSat 24 May 10:35:04 10:36:24 11° 330° (NNW) 10:37:45 145.825 MHz
ISS 24 May 10:36:50 10:38:19 12° 229° (SW) 10:39:47 145.800 FM
Oscar 11 24 May 10:48:30 10:52:35 38° 98° (E) 10:56:39 145.825 FM, Beacon 2401.500 USB
SO-50 24 May 10:56:18 10:59:37 18° 322° (NW) 11:02:54 436.795 FM
JAS-2 24 May 11:13:28 11:20:24 77° 103° (ESE) 11:26:27 435.800 - 435.900 CW/SSB, 435.910 FM
MaSat-1 24 May 11:34:17 11:37:39 68° 61° (ENE) 11:40:23 437.345 MHz
HO-68 24 May 11:54:48 12:01:40 51° 294° (WNW) 12:08:31 435.675 MHz FM
UOSAT-12 24 May 12:05:26 12:09:57 89° 308° (NW) 12:14:32 437.025 FM, 437.400 FM
OPAL 24 May 12:05:31 12:10:33 87° 107° (ESE) 12:15:31 ?
Oscar 11 24 May 12:25:15 12:28:35 22° 294° (WNW) 12:31:55 145.825 FM, Beacon 2401.500 USB
Saudisat 1A 24 May 12:35:35 12:37:01 11° 30° (NNE) 12:38:27 436.775 MHz
JAS-2 24 May 12:59:39 13:04:33 21° 304° (NW) 13:09:04 435.800 - 435.900 CW/SSB, 435.910 FM
Oscar 19 24 May 13:10:30 13:14:20 21° 62° (ENE) 13:18:10 437.125 CW, 437.150 USB
Uribyol 2 24 May 13:11:06 13:14:41 19° 61° (ENE) 13:18:17 436.500 FM
HO-68 24 May 13:46:02 13:47:44 11° 315° (NW) 13:49:27 435.675 MHz FM
OPAL 24 May 13:46:20 13:48:44 14° 305° (NW) 13:51:07 ?
UOSAT-12 24 May 13:47:56 13:50:48 16° 324° (NW) 13:53:40 437.025 FM, 437.400 FM
Oscar 16 24 May 13:48:42 13:53:43 52° 71° (ENE) 13:58:46 437.025 USB, Beacon 2401.1428
AO-27 24 May 14:01:54 14:06:53 51° 70° (ENE) 14:11:55 436.795 MHz FM
ITAMSAT 1 24 May 14:08:01 14:13:04 56° 71° (ENE) 14:18:09 435.822 SSB
Saudisat 1A 24 May 14:13:21 14:17:49 51° 51° (NE) 14:22:11 436.775 MHz
Uosat F 24 May 14:34:28 14:37:30 16° 60° (ENE) 14:40:33 435.120 FM
AO-Echo 24 May 14:38:30 14:42:52 35° 69° (ENE) 14:47:10 ?
Gurwin Techsat 1B 24 May 14:38:43 14:41:46 16° 59° (ENE) 14:44:50 435.225 FM
Sapphire 24 May 14:41:02 14:43:20 13° 33° (NNE) 14:45:38 437.095 MHz 1200 baud AX-25 AFSK
Oscar 19 24 May 14:48:12 14:53:17 54° 260° (W) 14:58:25 437.125 CW, 437.150 USB
Uribyol 2 24 May 14:48:35 14:53:42 61° 259° (WSW) 14:58:52 436.500 FM
AO-7 24 May 15:13:02 15:18:15 19° 47° (NE) 15:23:30 29.400 - 29.500 MHz
Oscar 16 24 May 15:29:33 15:33:23 21° 268° (W) 15:37:15 437.025 USB, Beacon 2401.1428
AO-27 24 May 15:42:51 15:46:42 21° 268° (W) 15:50:35 436.795 MHz FM
ITAMSAT 1 24 May 15:49:21 15:52:56 19° 268° (W) 15:56:34 435.822 SSB
PCSat 24 May 15:49:50 15:54:44 33° 49° (NE) 15:59:36 145.825 MHz
TMSAT-1 24 May 15:53:08 15:58:09 45° 70° (ENE) 16:03:11 436.925 FM
Saudisat 1A 24 May 15:53:53 15:57:09 20° 249° (WSW) 16:00:23 436.775 MHz
SO-50 24 May 16:05:13 16:08:17 17° 37° (NE) 16:11:17 436.795 FM
Uosat F 24 May 16:10:47 16:15:45 69° 257° (WSW) 16:20:46 435.120 FM
Gurwin Techsat 1B 24 May 16:15:47 16:21:05 79° 257° (WSW) 16:26:26 435.225 FM
AO-Echo 24 May 16:17:43 16:21:44 26° 265° (W) 16:25:42 ?
RS-15 24 May 16:20:14 16:31:41 53° 112° (ESE) 16:42:41 29.354 - 29.394 USB, Beacon 29.352 USB
Sapphire 24 May 16:22:42 16:28:03 54° 55° (NE) 16:33:21 437.095 MHz 1200 baud AX-25 AFSK
AO-7 24 May 17:01:26 17:09:40 73° 68° (ENE) 17:17:58 29.400 - 29.500 MHz
PCSat 24 May 17:33:10 17:38:15 41° 248° (WSW) 17:43:18 145.825 MHz
TMSAT-1 24 May 17:34:02 17:38:17 24° 267° (W) 17:42:34 436.925 FM
SO-50 24 May 17:44:56 17:49:30 82° 237° (WSW) 17:53:59 436.795 FM
Sapphire 24 May 18:06:53 18:11:06 23° 253° (WSW) 18:15:18 437.095 MHz 1200 baud AX-25 AFSK
Hamsat 24 May 18:09:18 18:10:09 11° 60° (ENE) 18:11:00 145.90 MHz
RS-15 24 May 18:32:31 18:44:10 55° 315° (NW) 18:55:22 29.354 - 29.394 USB, Beacon 29.352 USB
UOSAT-12 24 May 18:54:50 18:58:04 18° 38° (NE) 19:01:17 437.025 FM, 437.400 FM
AO-7 24 May 18:56:34 19:03:09 26° 267° (W) 19:09:48 29.400 - 29.500 MHz
SO-67 24 May 19:09:38 19:11:14 13° 65° (ENE) 19:12:51 435.3500 MHz FM
JAS-1B 24 May 19:14:41 19:22:52 42° 66° (ENE) 19:29:53 435.800 - 435.900 CW/SSB
STRAND 1 24 May 19:21:58 19:26:50 41° 98° (E) 19:31:40 ?
Hamsat 24 May 19:41:21 19:45:34 82° 258° (WSW) 19:49:51 145.90 MHz
JAS-2 24 May 19:47:58 19:48:41 10° 46° (NE) 19:49:23 435.800 - 435.900 CW/SSB, 435.910 FM
UOSAT-12 24 May 20:34:10 20:38:47 77° 238° (WSW) 20:43:22 437.025 FM, 437.400 FM
HO-68 24 May 20:37:45 20:43:42 30° 59° (ENE) 20:49:40 435.675 MHz FM
SO-67 24 May 20:40:53 20:44:19 44° 261° (W) 20:47:46 435.3500 MHz FM
RS-15 24 May 20:50:35 20:59:56 26° 347° (NNW) 21:08:58 29.354 - 29.394 USB, Beacon 29.352 USB
STRAND 1 24 May 21:01:35 21:05:50 27° 295° (WNW) 21:10:06 ?
JAS-1B 24 May 21:04:35 21:13:18 48° 261° (W) 21:20:48 435.800 - 435.900 CW/SSB
JAS-2 24 May 21:24:33 21:31:49 45° 66° (ENE) 21:39:04 435.800 - 435.900 CW/SSB, 435.910 FM
OPAL 24 May 21:44:07 21:48:16 25° 62° (ENE) 21:52:23 ?
Oscar 11 24 May 21:45:04 21:48:59 35° 70° (ENE) 21:52:56 145.825 FM, Beacon 2401.500 USB
HO-68 24 May 22:23:57 22:30:58 60° 258° (WSW) 22:38:02 435.675 MHz FM
KITSAT 1 24 May 22:38:13 22:45:35 41° 110° (ESE) 22:53:00 435.175 FM
RS-15 24 May 23:07:34 23:17:10 30° 22° (NNE) 23:26:28 29.354 - 29.394 USB, Beacon 29.352 USB
JAS-2 24 May 23:09:24 23:16:44 44° 264° (W) 23:24:09 435.800 - 435.900 CW/SSB, 435.910 FM
OPAL 24 May 23:21:54 23:26:53 47° 258° (WSW) 23:31:51 ?
Oscar 11 24 May 23:21:57 23:25:18 22° 266° (W) 23:28:42 145.825 FM, Beacon 2401.500 USB
MaSat-1 25 May 00:27:14 00:30:14 13° 102° (ESE) 00:33:02 437.345 MHz
KITSAT 1 25 May 00:33:01 00:40:50 52° 311° (NW) 00:48:44 435.175 FM
AO-40 25 May 00:47:52 03:40:10 22° 130° (SE) 05:13:28 Beacon 2401.320
RS-15 25 May 01:20:43 01:31:56 72° 52° (NE) 01:42:47 29.354 - 29.394 USB, Beacon 29.352 USB
ISS 25 May 01:42:59 01:44:59 15° 132° (SE) 01:47:01 145.800 FM
Oscar 16 25 May 02:00:34 02:03:51 17° 90° (E) 02:07:06 437.025 USB, Beacon 2401.1428
MaSat-1 25 May 02:04:54 02:11:52 76° 115° (ESE) 02:17:32 437.345 MHz
AO-27 25 May 02:14:59 02:18:18 17° 91° (E) 02:21:36 436.795 MHz FM
ITAMSAT 1 25 May 02:20:48 02:24:25 19° 92° (E) 02:28:01 435.822 SSB
KITSAT 1 25 May 02:32:59 02:38:24 19° 337° (NNW) 02:43:50 435.175 FM
Oscar 19 25 May 02:58:43 03:03:45 49° 99° (E) 03:08:43 437.125 CW, 437.150 USB
Uribyol 2 25 May 03:00:17 03:05:18 44° 99° (E) 03:10:17 436.500 FM
ISS 25 May 03:18:02 03:21:20 73° 329° (NNW) 03:24:40 145.800 FM
RS-15 25 May 03:34:02 03:43:19 33° 255° (WSW) 03:52:30 29.354 - 29.394 USB, Beacon 29.352 USB
Oscar 16 25 May 03:38:32 03:43:40 63° 288° (WNW) 03:48:44 437.025 USB, Beacon 2401.1428
MaSat-1 25 May 03:49:24 03:54:20 22° 309° (NW) 03:58:34 437.345 MHz
AO-27 25 May 03:53:05 03:58:16 64° 288° (WNW) 04:03:26 436.795 MHz FM
ITAMSAT 1 25 May 03:59:10 04:04:18 58° 289° (WNW) 04:09:25 435.822 SSB
TMSAT-1 25 May 04:08:59 04:12:18 17° 90° (E) 04:15:35 436.925 FM
Uosat F 25 May 04:17:41 04:22:14 34° 97° (E) 04:26:46 435.120 FM
AO-Echo 25 May 04:22:30 04:27:17 89° 104° (ESE) 04:32:10 ?
Gurwin Techsat 1B 25 May 04:31:06 04:36:04 39° 97° (E) 04:41:00 435.225 FM
KITSAT 1 25 May 04:33:38 04:37:44 14° 8° (N) 04:41:51 435.175 FM
Oscar 19 25 May 04:38:49 04:42:46 23° 297° (WNW) 04:46:43 437.125 CW, 437.150 USB
Uribyol 2 25 May 04:40:18 04:44:33 26° 296° (WNW) 04:48:46 436.500 FM
ISS 25 May 04:55:44 04:58:28 23° 348° (NNW) 05:01:12 145.800 FM
AO-7 25 May 05:02:56 05:08:59 22° 91° (E) 05:14:59 29.400 - 29.500 MHz
TMSAT-1 25 May 05:47:26 05:52:43 66° 287° (WNW) 05:57:58 436.925 FM
Uosat F 25 May 05:56:36 06:00:58 31° 294° (WNW) 06:05:21 435.120 FM
Saudisat 1A 25 May 06:00:47 06:05:21 84° 123° (ESE) 06:09:59 436.775 MHz
AO-Echo 25 May 06:03:44 06:05:24 12° 301° (WNW) 06:07:05 ?
Gurwin Techsat 1B 25 May 06:11:21 06:15:54 29° 295° (WNW) 06:20:25 435.225 FM
KITSAT 1 25 May 06:29:28 06:36:24 29° 37° (NE) 06:43:17 435.175 FM
ISS 25 May 06:33:19 06:35:58 21° 9° (N) 06:38:38 145.800 FM
PCSat 25 May 06:34:05 06:38:05 22° 107° (ESE) 06:42:07 145.825 MHz
STRAND 1 25 May 06:39:08 06:44:10 67° 73° (ENE) 06:49:15 ?
AO-7 25 May 06:54:17 07:02:41 84° 290° (WNW) 07:11:03 29.400 - 29.500 MHz
Sapphire 25 May 07:06:00 07:10:57 38° 112° (ESE) 07:15:56 437.095 MHz 1200 baud AX-25 AFSK
Hamsat 25 May 07:27:44 07:30:41 18° 92° (E) 07:33:37 145.90 MHz
Saudisat 1A 25 May 07:42:34 07:45:40 18° 323° (NW) 07:48:47 436.775 MHz
SO-50 25 May 08:01:54 08:05:50 26° 113° (ESE) 08:09:44 436.795 FM
SO-67 25 May 08:07:54 08:09:40 13° 91° (E) 08:11:25 435.3500 MHz FM
ISS 25 May 08:09:53 08:13:12 57° 28° (NNE) 08:16:31 145.800 FM
PCSat 25 May 08:15:45 08:21:04 58° 305° (NW) 08:26:27 145.825 MHz
STRAND 1 25 May 08:20:53 08:23:51 15° 270° (W) 08:26:50 ?
KITSAT 1 25 May 08:24:37 08:32:47 85° 240° (WSW) 08:40:54 435.175 FM
AO-7 25 May 08:48:27 08:54:20 22° 311° (NW) 09:00:13 29.400 - 29.500 MHz
Sapphire 25 May 08:49:28 08:54:24 35° 311° (NW) 08:59:23 437.095 MHz 1200 baud AX-25 AFSK
JAS-1B 25 May 08:49:31 08:55:15 46° 98° (E) 09:00:40 435.800 - 435.900 CW/SSB
Hamsat 25 May 09:02:48 09:06:58 45° 288° (WNW) 09:11:09 145.90 MHz

Developed and maintained by Chris Peat, Heavens-Above GmbH. Please read the updated FAQ before sending e-mail. Imprint. DLR
